CW9809 Weather Reports


Display with metric or nautical units.
time (UTC)temp
F
wind
direction
speed
MPH
gust
MPH
rain 1hr
in
rain 24hr
in
rain mn
in
humidity
%
barometer
mb
20260503203021 54 27 6.0 15.0 0.00 0.00 0.00 38 1009.8
20260503201524 53 109 4.0 21.0 0.00 0.00 0.00 38 1009.9
20260503200007 53 332 7.0 22.0 0.00 0.00 0.00 38 1009.7
20260503194510 54 304 6.0 19.0 0.00 0.00 0.00 40 1009.9
20260503193016 53 288 4.0 18.0 0.00 0.00 0.00 40 1009.8
20260503191521 52 305 5.0 17.0 0.00 0.00 0.00 39 1009.9
20260503190040 54 360 5.0 19.0 0.00 0.00 0.00 38 1009.9
20260503184508 54 242 7.0 18.0 0.00 0.00 0.00 38 1009.8
20260503183016 52 34 6.0 18.0 0.00 0.00 0.00 40 1009.9
20260503181515 51 48 8.0 20.0 0.00 0.00 0.00 40 1009.8
20260503180036 51 57 8.0 20.0 0.00 0.00 0.00 42 1009.7
20260503174526 51 37 7.0 21.0 0.00 0.00 0.00 39 1009.7
20260503173011 52 13 5.0 15.0 0.00 0.00 0.00 43 1009.8
20260503171521 51 333 5.0 14.0 0.00 0.00 0.00 44 1010.0
20260503081536 39 41 2.0 12.0 0.00 0.04 0.00 67 1010.0
20260503071528 41 69 3.0 11.0 0.00 0.04 0.00 62 1010.3
20260503054536 43 25 2.0 11.0 0.00 0.04 0.00 57 1010.9
20260503053026 44 352 7.0 18.0 0.00 0.04 0.00 56 1011.0
20260503051521 44 24 4.0 8.0 0.00 0.04 0.00 58 1011.3
20260503050024 44 11 5.0 11.0 0.00 0.04 0.00 57 1011.3
20260503044526 45 19 3.0 8.0 0.00 0.04 0.00 56 1011.4
20260503043028 45 59 3.0 9.0 0.00 0.04 0.00 56 1011.3
20260503041528 45 28 3.0 12.0 0.00 0.04 0.00 55 1011.4
20260503040021 46 13 5.0 12.0 0.00 0.04 0.00 54 1011.4
20260503034525 46 30 4.0 11.0 0.00 0.04 0.04 54 1011.3
20260503033039 46 10 6.0 11.0 0.00 0.04 0.04 53 1011.3
20260503031514 46 37 4.0 8.0 0.00 0.04 0.04 55 1011.4
20260503030018 46 38 5.0 8.0 0.00 0.04 0.04 54 1011.4
20260503024521 46 24 0.0 5.0 0.00 0.04 0.04 55 1011.5
20260503023025 47 32 1.0 9.0 0.00 0.04 0.04 54 1011.6
20260503021528 47 334 2.0 6.0 0.00 0.04 0.04 54 1011.7
20260503020031 48 25 1.0 6.0 0.00 0.04 0.04 55 1011.7
20260503014517 48 53 2.0 9.0 0.00 0.04 0.04 52 1011.6
20260503013028 48 30 2.0 8.0 0.00 0.04 0.04 52 1011.6
20260503011531 49 352 3.0 9.0 0.00 0.04 0.04 51 1011.7
20260503010030 49 5 0.0 7.0 0.00 0.04 0.04 50 1011.6
20260503004530 50 29 4.0 9.0 0.00 0.04 0.04 49 1011.4
20260503003015 50 27 4.0 10.0 0.00 0.04 0.04 50 1011.3
20260503001526 50 46 5.0 10.0 0.00 0.04 0.04 53 1011.2
20260503000025 51 37 5.0 13.0 0.00 0.04 0.04 56 1011.0
20260502234529 51 12 0.0 0.0 0.00 0.04 0.04 57 1010.8
20260502233030 52 13 0.0 0.0 0.00 0.04 0.04 54 1010.9
20260502231517 53 11 0.0 6.0 0.00 0.04 0.04 53 1010.8
20260502230024 53 42 2.0 5.0 0.00 0.04 0.04 52 1010.8
20260502224524 54 22 2.0 11.0 0.00 0.04 0.04 50 1010.8
20260502223035 55 32 1.0 12.0 0.00 0.04 0.04 52 1010.6
20260502221528 54 9 4.0 12.0 0.00 0.04 0.04 54 1010.6
20260502220018 54 45 5.0 12.0 0.00 0.04 0.04 54 1010.4
20260502214521 56 360 3.0 14.0 0.00 0.04 0.04 53 1010.4
20260502213007 56 313 0.0 3.0 0.00 0.04 0.04 51 1010.2
20260502211526 57 346 0.0 0.0 0.00 0.04 0.04 49 1010.0
20260502210016 59 352 2.0 9.0 0.00 0.04 0.04 45 1010.0
20260502204521 57 51 0.0 7.0 0.00 0.04 0.04 47 1010.2